Regional Weather Roundup
Issued by NWS Columbia, SC

Home | Current Version | Previous Version | Text Only | Print | Product List | Glossary On
Versions: 1 2 3 4 5 6 7 8 9 10 11 12 13 14 15 16 17 18 19 20 21 22 23 24 25 26 27 28 29 30 31 32 33 34 35 36 37 38 39 40 41 42 43 44 45 46 47 48 49 50
000
ASUS42 KCAE 082110
RWRCAE
REGIONAL WEATHER ROUNDUP
NATIONAL WEATHER SERVICE COLUMBIA SC
400 PM EST MON FEB 08 2016

NOTE: "FAIR" INDICATES FEW OR NO CLOUDS BELOW 12,000 FEET WITH NO
SIGNIFICANT WEATHER AND/OR OBSTRUCTIONS TO VISIBILITY.

NOT ALL STATIONS ARE QUALITY CONTROLLED BY THE NATIONAL
WEATHER SERVICE. USE DATA WITH CAUTION...ESPECIALLY
DEWPOINT OBSERVATIONS.

SCZ001>056-GAZ040-063>065-077-082200-
...UPSTATE SOUTH CAROLINA...

CITY           SKY/WX    TMP DP  RH WIND       PRES   REMARKS
ANDERSON       CLOUDY    52  27  38 SW17      29.67F
LIBERTY        MOCLDY    48  30  51 W9G17     29.65F
SPARTANBURG    PTSUNNY   46  28  49 SW9G28    29.65S
CLEMSON        CLOUDY    52  27  38 W8G21     29.67S
GREENVILLE     LGT RAIN  45  33  63 SW10G24   29.66F
GREENWOOD      SUNNY     51  31  46 SW17      29.70F
GREER          PTSUNNY   46  32  58 SW12      29.66R
ROCK HILL      MOSUNNY   50  33  52 SW20      29.65F
LAURENS        CLEAR     50  32  50 SW14G23   29.67F


...CENTRAL SOUTH CAROLINA...

CITY           SKY/WX    TMP DP  RH WIND       PRES   REMARKS
COLUMBIA APT   RAIN      46  39  76 W14       29.73R
COLUMBIA OWENS RAIN      48  39  71 W13G26    29.74R
MCENTIRE ANGB  LGT RAIN  49  38  67 W17       29.72R
ORANGEBURG     LGT RAIN  57  31  37 W17G30    29.69S
SUMTER SHAW    LGT RAIN  52  39  62 W21G32    29.68R
NEWBERRY       PTCLDY    52  32  46 W20G29    29.71F
AIKEN          DRIZZLE   43  39  87 W5        29.75F
BARNWELL       DRIZZLE   52  39  62 NW9G20    29.74R
MANNING        FAIR      59  30  33 S12G25    29.67F
CAMDEN         LGT RAIN  46  46 100 W17G24    29.72R
LANCASTER      MOCLDY    48  34  57 SW13      29.67F
WINNSBORO      CLOUDY    46  36  66 SW8       29.69F


...EASTERN AND COASTAL SOUTH CAROLINA...

CITY           SKY/WX    TMP DP  RH WIND       PRES   REMARKS
MYRTLE BEACH   SUNNY     55  37  50 S17G25    29.72F
N MYRTLE BCH   SUNNY     54  39  57 SW16G26   29.70F
CONWAY         FAIR      59  32  36 S10       29.69F
MARION         FAIR      57  30  35 S12G17    29.66F
HARTSVILLE     CLOUDY    52  36  54 W10G28    29.67R
FLORENCE       PTSUNNY   58  32  37 SW12G17   29.64F
DARLINGTON     PTSUNNY   55  34  44 SW12      29.65F
CHARLESTON APT MOSUNNY   59  35  40 S17G25    29.72F
MOUNT PLEASANT FAIR      57  37  47 S18G24    29.73F
WALTERBORO     CLOUDY    61  32  33 SW8       29.71F
BEAUFORT       MOSUNNY   62  31  31 SW13G23   29.72F


...EASTERN GEORGIA...

CITY           SKY/WX    TMP DP  RH WIND       PRES   REMARKS
AUGUSTA BUSH F CLOUDY    52  40  63 W5        29.73S
AUGUSTA DANIEL PTSUNNY   52  34  50 W9        29.73F
THOMSON        PTSUNNY   55  35  47 W13G23    29.77S
WASHINGTON     FAIR      55  36  47 W17G23    29.70F
CLAXTON        CLOUDY    61  37  41 SW6G20    29.72F
SYLVANIA       CLOUDY    61  35  38 W10G18    29.71F
STATESBORO     MOSUNNY   64  20  19 SW16G25   29.71F
SAVANNAH       MOSUNNY   63  29  27 SW16G28   29.73F


...SOUTHERN NORTH CAROLINA...

CITY           SKY/WX    TMP DP  RH WIND       PRES   REMARKS
CHARLOTTE      PTSUNNY   51  29  42 SW16G22   29.65F
MONROE         CLOUDY    46  35  65 S8        29.64F
WADESBORO      LGT RAIN  49  37  64 SW5       29.68R
ROCKINGHAM     RAIN      51  37  58 SW25G35   29.66R
RUTHERFORDTON  PTSUNNY   51  20  29 W9G16     29.63S
ASHEVILLE      CLOUDY    44  20  38 VRB5      29.62S

$$



USA.gov is the U.S. government's official web portal to all federal, state and local government web resources and services.